Time,TemperatureF,DewpointF,PressureIn,WindDirection,WindDirectionDegrees,WindSpeedMPH,WindSpeedGustMPH,Humidity,HourlyPrecipIn,Conditions,Clouds,dailyrainin,SoftwareType,DateUTC
2013-06-11 00:12:00,80.0,-99.9,30.01,North,-999,-999.0,-999.0,-999,-99.99,,,-99.99,,2013-06-11 05:12:00,
2013-06-11 00:32:00,79.0,-99.9,-100.00,North,-999,-999.0,-999.0,-999,-99.99,,,-99.99,,2013-06-11 05:32:00,
2013-06-11 00:42:00,79.0,-99.9,30.01,North,-999,-999.0,-999.0,-999,-99.99,,,-99.99,,2013-06-11 05:42:00,
2013-06-11 01:12:00,79.0,-99.9,30.01,North,-999,-999.0,-999.0,-999,-99.99,,,-99.99,,2013-06-11 06:12:00,
2013-06-11 01:42:00,79.0,-99.9,30.01,North,-999,-999.0,-999.0,-999,-99.99,,,-99.99,,2013-06-11 06:42:00,
2013-06-11 02:13:00,78.0,-99.9,30.01,North,-999,-999.0,-999.0,-999,-99.99,,,-99.99,,2013-06-11 07:13:00,
2013-06-11 02:22:00,78.0,-99.9,-100.00,North,-999,-999.0,-999.0,-999,-99.99,,,-99.99,,2013-06-11 07:22:00,
2013-06-11 02:32:00,78.0,-99.9,-100.00,North,-999,-999.0,-999.0,-999,-99.99,,,-99.99,,2013-06-11 07:32:00,
2013-06-11 02:42:00,78.0,-99.9,30.02,North,-999,-999.0,-999.0,-999,-99.99,,,-99.99,,2013-06-11 07:42:00,
2013-06-11 03:12:00,78.0,-99.9,30.02,North,-999,-999.0,-999.0,-999,-99.99,,,-99.99,,2013-06-11 08:12:00,
2013-06-11 03:42:00,78.0,-99.9,30.02,North,-999,-999.0,-999.0,-999,-99.99,,,-99.99,,2013-06-11 08:42:00,
2013-06-11 04:02:00,78.0,-99.9,-100.00,North,-999,-999.0,-999.0,-999,-99.99,,,-99.99,,2013-06-11 09:02:00,
2013-06-11 04:12:00,78.0,-99.9,30.02,North,-999,-999.0,-999.0,-999,-99.99,,,-99.99,,2013-06-11 09:12:00,
2013-06-11 04:33:00,79.0,-99.9,-100.00,North,-999,-999.0,-999.0,-999,-99.99,,,-99.99,,2013-06-11 09:33:00,
2013-06-11 04:43:00,79.0,-99.9,30.02,North,-999,-999.0,-999.0,-999,-99.99,,,-99.99,,2013-06-11 09:43:00,
2013-06-11 04:53:00,79.0,-99.9,-100.00,North,-999,-999.0,-999.0,-999,-99.99,,,-99.99,,2013-06-11 09:53:00,
2013-06-11 05:03:00,79.0,-99.9,-100.00,North,-999,-999.0,-999.0,-999,-99.99,,,-99.99,,2013-06-11 10:03:00,
2013-06-11 05:12:00,79.0,-99.9,-100.00,North,-999,-999.0,-999.0,-999,-99.99,,,-99.99,,2013-06-11 10:12:00,
2013-06-11 05:43:00,79.0,-99.9,30.03,North,-999,-999.0,-999.0,-999,-99.99,,,-99.99,,2013-06-11 10:43:00,
2013-06-11 05:52:00,78.0,-99.9,-100.00,North,-999,-999.0,-999.0,-999,-99.99,,,-99.99,,2013-06-11 10:52:00,
2013-06-11 06:02:00,78.0,-99.9,-100.00,North,-999,-999.0,-999.0,-999,-99.99,,,-99.99,,2013-06-11 11:02:00,
2013-06-11 06:12:00,78.0,-99.9,30.04,North,-999,-999.0,-999.0,-999,-99.99,,,-99.99,,2013-06-11 11:12:00,
2013-06-11 06:22:00,78.0,-99.9,-100.00,North,-999,-999.0,-999.0,-999,-99.99,,,-99.99,,2013-06-11 11:22:00,
2013-06-11 06:32:00,78.0,-99.9,-100.00,North,-999,-999.0,-999.0,-999,-99.99,,,-99.99,,2013-06-11 11:32:00,
2013-06-11 06:42:00,77.0,-99.9,30.05,North,-999,-999.0,-999.0,-999,-99.99,,,-99.99,,2013-06-11 11:42:00,
2013-06-11 07:02:00,77.0,-99.9,-100.00,North,-999,-999.0,-999.0,-999,-99.99,,,-99.99,,2013-06-11 12:02:00,
2013-06-11 07:12:00,77.0,-99.9,30.05,North,-999,-999.0,-999.0,-999,-99.99,,,-99.99,,2013-06-11 12:12:00,
2013-06-11 07:42:00,79.0,-99.9,30.06,North,-999,-999.0,-999.0,-999,-99.99,,,-99.99,,2013-06-11 12:42:00,
2013-06-11 08:02:00,81.0,-99.9,-100.00,North,-999,-999.0,-999.0,-999,-99.99,,,-99.99,,2013-06-11 13:02:00,
2013-06-11 08:12:00,81.0,-99.9,30.07,North,-999,-999.0,-999.0,-999,-99.99,,,-99.99,,2013-06-11 13:12:00,
2013-06-11 08:22:00,82.0,-99.9,-100.00,North,-999,-999.0,-999.0,-999,-99.99,,,-99.99,,2013-06-11 13:22:00,
2013-06-11 08:42:00,83.0,-99.9,30.07,North,-999,-999.0,-999.0,-999,-99.99,,,-99.99,,2013-06-11 13:42:00,
2013-06-11 08:52:00,84.0,-99.9,-100.00,North,-999,-999.0,-999.0,-999,-99.99,,,-99.99,,2013-06-11 13:52:00,
2013-06-11 09:12:00,85.0,-99.9,30.08,North,-999,-999.0,-999.0,-999,-99.99,,,-99.99,,2013-06-11 14:12:00,
2013-06-11 09:22:00,85.0,-99.9,-100.00,North,-999,-999.0,-999.0,-999,-99.99,,,-99.99,,2013-06-11 14:22:00,
2013-06-11 09:32:00,84.0,-99.9,-100.00,North,-999,-999.0,-999.0,-999,-99.99,,,-99.99,,2013-06-11 14:32:00,
2013-06-11 09:42:00,85.0,-99.9,30.09,North,-999,-999.0,-999.0,-999,-99.99,,,-99.99,,2013-06-11 14:42:00,
2013-06-11 10:02:00,85.0,-99.9,-100.00,North,-999,-999.0,-999.0,-999,-99.99,,,-99.99,,2013-06-11 15:02:00,
2013-06-11 10:12:00,85.0,-99.9,30.09,North,-999,-999.0,-999.0,-999,-99.99,,,-99.99,,2013-06-11 15:12:00,
2013-06-11 10:33:00,86.0,-99.9,-100.00,North,-999,-999.0,-999.0,-999,-99.99,,,-99.99,,2013-06-11 15:33:00,
2013-06-11 10:43:00,85.0,-99.9,30.08,North,-999,-999.0,-999.0,-999,-99.99,,,-99.99,,2013-06-11 15:43:00,
2013-06-11 10:53:00,85.0,-99.9,-100.00,North,-999,-999.0,-999.0,-999,-99.99,,,-99.99,,2013-06-11 15:53:00,
2013-06-11 11:13:00,88.0,-99.9,30.08,North,-999,-999.0,-999.0,-999,-99.99,,,-99.99,,2013-06-11 16:13:00,
2013-06-11 11:42:00,88.0,-99.9,30.09,North,-999,-999.0,-999.0,-999,-99.99,,,-99.99,,2013-06-11 16:42:00,
2013-06-11 12:12:00,90.0,-99.9,30.09,North,-999,-999.0,-999.0,-999,-99.99,,,-99.99,,2013-06-11 17:12:00,
2013-06-11 12:22:00,88.0,-99.9,-100.00,North,-999,-999.0,-999.0,-999,-99.99,,,-99.99,,2013-06-11 17:22:00,
2013-06-11 12:43:00,88.0,-99.9,30.08,North,-999,-999.0,-999.0,-999,-99.99,,,-99.99,,2013-06-11 17:43:00,
2013-06-11 13:02:00,89.0,-99.9,-100.00,North,-999,-999.0,-999.0,-999,-99.99,,,-99.99,,2013-06-11 18:02:00,
2013-06-11 13:12:00,90.0,-99.9,30.08,North,-999,-999.0,-999.0,-999,-99.99,,,-99.99,,2013-06-11 18:12:00,
2013-06-11 13:33:00,88.0,-99.9,-100.00,North,-999,-999.0,-999.0,-999,-99.99,,,-99.99,,2013-06-11 18:33:00,
2013-06-11 13:43:00,88.0,-99.9,30.08,North,-999,-999.0,-999.0,-999,-99.99,,,-99.99,,2013-06-11 18:43:00,
2013-06-11 14:13:00,87.0,-99.9,30.08,North,-999,-999.0,-999.0,-999,-99.99,,,-99.99,,2013-06-11 19:13:00,
2013-06-11 14:22:00,89.0,-99.9,-100.00,North,-999,-999.0,-999.0,-999,-99.99,,,-99.99,,2013-06-11 19:22:00,
2013-06-11 14:42:00,89.0,-99.9,30.07,North,-999,-999.0,-999.0,-999,-99.99,,,-99.99,,2013-06-11 19:42:00,
2013-06-11 15:12:00,89.0,-99.9,30.06,North,-999,-999.0,-999.0,-999,-99.99,,,-99.99,,2013-06-11 20:12:00,
2013-06-11 15:22:00,90.0,-99.9,-100.00,North,-999,-999.0,-999.0,-999,-99.99,,,-99.99,,2013-06-11 20:22:00,
2013-06-11 15:32:00,90.0,-99.9,-100.00,North,-999,-999.0,-999.0,-999,-99.99,,,-99.99,,2013-06-11 20:32:00,
2013-06-11 15:42:00,90.0,-99.9,30.05,North,-999,-999.0,-999.0,-999,-99.99,,,-99.99,,2013-06-11 20:42:00,
2013-06-11 15:52:00,90.0,-99.9,-100.00,North,-999,-999.0,-999.0,-999,-99.99,,,-99.99,,2013-06-11 20:52:00,
2013-06-11 16:12:00,89.0,-99.9,30.05,North,-999,-999.0,-999.0,-999,-99.99,,,-99.99,,2013-06-11 21:12:00,
2013-06-11 16:42:00,89.0,-99.9,30.04,North,-999,-999.0,-999.0,-999,-99.99,,,-99.99,,2013-06-11 21:42:00,
2013-06-11 17:13:00,90.0,-99.9,30.04,North,-999,-999.0,-999.0,-999,-99.99,,,-99.99,,2013-06-11 22:13:00,
2013-06-11 17:23:00,90.0,-99.9,-100.00,North,-999,-999.0,-999.0,-999,-99.99,,,-99.99,,2013-06-11 22:23:00,
2013-06-11 17:42:00,89.0,-99.9,30.03,North,-999,-999.0,-999.0,-999,-99.99,,,-99.99,,2013-06-11 22:42:00,
2013-06-11 18:03:00,89.0,-99.9,-100.00,North,-999,-999.0,-999.0,-999,-99.99,,,-99.99,,2013-06-11 23:03:00,
2013-06-11 18:12:00,89.0,-99.9,-100.00,North,-999,-999.0,-999.0,-999,-99.99,,,-99.99,,2013-06-11 23:12:00,
2013-06-11 18:22:00,89.0,-99.9,-100.00,North,-999,-999.0,-999.0,-999,-99.99,,,-99.99,,2013-06-11 23:22:00,
2013-06-11 18:42:00,89.0,-99.9,30.02,North,-999,-999.0,-999.0,-999,-99.99,,,-99.99,,2013-06-11 23:42:00,
2013-06-11 18:52:00,89.0,-99.9,-100.00,North,-999,-999.0,-999.0,-999,-99.99,,,-99.99,,2013-06-11 23:52:00,
2013-06-11 19:12:00,88.0,-99.9,30.02,North,-999,-999.0,-999.0,-999,-99.99,,,-99.99,,2013-06-12 00:12:00,
2013-06-11 19:42:00,86.0,-99.9,30.02,North,-999,-999.0,-999.0,-999,-99.99,,,-99.99,,2013-06-12 00:42:00,
2013-06-11 19:52:00,86.0,-99.9,-100.00,North,-999,-999.0,-999.0,-999,-99.99,,,-99.99,,2013-06-12 00:52:00,
2013-06-11 20:02:00,85.0,-99.9,-100.00,North,-999,-999.0,-999.0,-999,-99.99,,,-99.99,,2013-06-12 01:02:00,
2013-06-11 20:12:00,85.0,-99.9,30.03,North,-999,-999.0,-999.0,-999,-99.99,,,-99.99,,2013-06-12 01:12:00,
2013-06-11 20:32:00,84.0,-99.9,-100.00,North,-999,-999.0,-999.0,-999,-99.99,,,-99.99,,2013-06-12 01:32:00,
2013-06-11 20:42:00,84.0,-99.9,30.03,North,-999,-999.0,-999.0,-999,-99.99,,,-99.99,,2013-06-12 01:42:00,
2013-06-11 20:52:00,84.0,-99.9,-100.00,North,-999,-999.0,-999.0,-999,-99.99,,,-99.99,,2013-06-12 01:52:00,
2013-06-11 21:02:00,83.0,-99.9,-100.00,North,-999,-999.0,-999.0,-999,-99.99,,,-99.99,,2013-06-12 02:02:00,
2013-06-11 21:12:00,83.0,-99.9,30.04,North,-999,-999.0,-999.0,-999,-99.99,,,-99.99,,2013-06-12 02:12:00,
2013-06-11 21:32:00,83.0,-99.9,-100.00,North,-999,-999.0,-999.0,-999,-99.99,,,-99.99,,2013-06-12 02:32:00,
2013-06-11 21:42:00,83.0,-99.9,30.04,North,-999,-999.0,-999.0,-999,-99.99,,,-99.99,,2013-06-12 02:42:00,
2013-06-11 22:02:00,82.0,-99.9,-100.00,North,-999,-999.0,-999.0,-999,-99.99,,,-99.99,,2013-06-12 03:02:00,
2013-06-11 22:12:00,82.0,-99.9,30.05,North,-999,-999.0,-999.0,-999,-99.99,,,-99.99,,2013-06-12 03:12:00,
2013-06-11 22:22:00,82.0,-99.9,-100.00,North,-999,-999.0,-999.0,-999,-99.99,,,-99.99,,2013-06-12 03:22:00,
2013-06-11 22:43:00,81.0,-99.9,30.05,North,-999,-999.0,-999.0,-999,-99.99,,,-99.99,,2013-06-12 03:43:00,
2013-06-11 23:03:00,81.0,-99.9,-100.00,North,-999,-999.0,-999.0,-999,-99.99,,,-99.99,,2013-06-12 04:03:00,
2013-06-11 23:13:00,81.0,-99.9,30.06,North,-999,-999.0,-999.0,-999,-99.99,,,-99.99,,2013-06-12 04:13:00,
2013-06-11 23:43:00,81.0,-99.9,30.06,North,-999,-999.0,-999.0,-999,-99.99,,,-99.99,,2013-06-12 04:43:00,